Home > Weather > Passau > Past weeks

Flag for Germany Past Weather in Passau, Bavaria, Germany — Yesterday and Last 2 Weeks

Now
67 °F

Mild.


Feels Like: 67 °F
Forecast: 56 / 81 °F
Wind: 2 mph from West

Location: Rohrbach

Current Time: Jul 29, 2016 at 12:27:10 PM

Latest Report: Jul 29, 2016 at 11:00 AM


Visibility: N/A

Pressure: 30.01 "Hg

Humidity: 80%

Dew Point: 61 °F

Location of PassauLocation

Past Weather in Passau — Graph

°F

Passau Temperature Yesterday

Maximum temperature yesterday: 73 °F (at 4:00 PM)
Minimum temperature yesterday: 61 °F (at 6:00 AM)
Average temperature yesterday: 66 °F

High & Low Weather Summary for the Past Weeks

 TemperatureHumidityPressure
High80 °F (Jul 23, 3:00 PM)100% (Jul 18, 4:00 AM)30.30 "Hg (Jul 18, 4:00 AM)
Low49 °F (Jul 15, 6:00 AM)48% (Jul 18, 6:00 PM)29.90 "Hg (Jul 22, 6:00 PM)
Average65 °F80%30.07 "Hg
* Reported Jul 14 11:00 AM — Jul 29 11:00 AM, Passau, Weather by CustomWeather, © 2016

Note: Actual official high and low records may vary slightly from our data, if they occured in-between our weather recording intervals... More about our weather records

Advertising

Passau Weather History for the Previous 24 Hours

Scroll right to see more
 ConditionsComfort  
Time TempWeatherWind HumidityBarometerVisibility
11:00 AM
Fri, Jul 29
67 °FMild.2 mph80%30.01 "HgN/A
10:00 AM65 °FMild.2 mph84%30.01 "HgN/A
9:00 AM62 °FMild.1 mph90%30.02 "HgN/A
8:00 AM58 °FCool.No wind97%30.03 "HgN/A
7:00 AM57 °FFog.1 mph96%30.03 "HgN/A
6:00 AM56 °FCool.No wind97%30.03 "HgN/A
5:00 AM57 °FCool.1 mph96%30.02 "HgN/A
4:00 AM56 °FCool.No wind98%30.03 "HgN/A
3:00 AM58 °FCool.No wind97%30.02 "HgN/A
1:00 AM60 °FCool.1 mph94%30.02 "HgN/A
12:00 AM61 °FCool.1 mph92%30.02 "HgN/A
10:00 PM
Thu, Jul 28
64 °FMild.1 mph83%30.02 "HgN/A
9:00 PM66 °FMild.1 mph78%30.01 "HgN/A
8:00 PM67 °FMild.2 mph76%30.00 "HgN/A
7:00 PM69 °FMild.2 mph72%29.99 "HgN/A
6:00 PM69 °FMild.2 mph67%29.98 "HgN/A
4:00 PM73 °FMild.2 mph64%29.96 "HgN/A
3:00 PM73 °FMild.3 mph71%29.98 "HgN/A
2:00 PM73 °FMild.3 mph75%30.00 "HgN/A
1:00 PM70 °FMild.2 mph75%30.02 "HgN/A
12:00 PM71 °FMild.2 mph74%30.03 "HgN/A
Weather by CustomWeather, © 2016

See weather overviewHow to use our weather pages